"Pseudo-MPEC" for P22pl34

Created 2026 Aug 14 13:35:28 UT using Find_Orb

Click here for an explanation of pseudo-MPECs

 
 Astrometry: 
     P22pl34*0C2026 08 13.47468900 02 13.963-09 37 12.84   ~8DDZ 21.13wXNEOCPF52
     P22pl34 0C2026 08 13.48546100 02 14.849-09 36 32.81   ~8DDZ 21.19wXNEOCPF52
     P22pl34 0C2026 08 13.57253300 02 22.039-09 31 09.93   ~8DL5 21.20GVNEOCPF51
     P22pl34 0C2026 08 13.57318200 02 22.094-09 31 07.54   ~8DL5 21.30GVNEOCPF51
     P22pl34 0C2026 08 13.58742200 02 23.251-09 30 14.10   ~8DG5 21.54wXNEOCPF51
     P22pl34 0C2026 08 13.60089700 02 24.387-09 29 23.78   ~8DG5 22.07wXNEOCPF51
     P22pl34 0C2026 08 13.60751000 02 24.948-09 28 59.34   ~8DG5 21.46wXNEOCPF51
     P22pl34 KB2026 08 14.02662 00 03 07.59 -09 02 54.0    ~8E2o 18.9 VZNEOCP106
     P22pl34 KB2026 08 14.03547 00 03 08.41 -09 02 20.3    ~8E2o       ZNEOCP106
     P22pl34 KB2026 08 14.04433 00 03 09.20 -09 01 45.6    ~8E2o 19.1 VZNEOCP106
     P22pl34 KB2026 08 14.05307 00 03 09.90 -09 01 12.9    ~8E2o 19.3 VZNEOCP106
     P22pl34 1C2026 08 14.06987000 03 11.459-09 00 10.40   ~8E6Z 20.5 GXNEOCP033
     P22pl34 1C2026 08 14.07237000 03 11.668-09 00 00.80   ~8E6Z 20.6 GXNEOCP033
     P22pl34 1C2026 08 14.07487000 03 11.887-08 59 51.50   ~8E6Z 20.6 GXNEOCP033
     P22pl34 1C2026 08 14.07737000 03 12.089-08 59 41.50   ~8E6Z 20.6 GXNEOCP033

Station data:
(033) Karl Schwarzschild Observatory, Tautenburg  (N50.980139 E11.711240)
   Germany.  Observer B. Stecklum. 1.34-m f/3 Schmidt + CCD.
(106) Črni Vrh  (N45.945905 E14.071100)  Slovenia.  Observer J. Skvarč. 0.6-m
   f/3.3 Deltagraph + CCD.
(F51) Pan-STARRS 1, Haleakala  (N20.707234 W156.255910)  US/Hawaii.
   Observers J. Herman, T. Lowe, P. Minguez, A. Schultz, I. Smith. Measurers
   K. Chambers, T. de Boer, J. Fairlamb, H. Gao, M. Huber, C.-C. Lin, E.
   Magnier, Y. Ramanjooloo, R. Wainscoat, R. Weryk. 1.8-m Ritchey-Chrétien +
   CCD.
(F52) Pan-STARRS 2, Haleakala  (N20.707382 W156.255910)  US/Hawaii.
   Observers J. Herman, T. Lowe, P. Minguez, A. Schultz, I. Smith. Measurers
   K. Chambers, T. de Boer, J. Fairlamb, H. Gao, M. Huber, C.-C. Lin, E.
   Magnier, Y. Ramanjooloo, R. Wainscoat, R. Weryk. 1.8-m Ritchey-Chrétien +
   CCD.

Orbital elements:  P22pl34
   Perihelion 2026 Oct 11.128377 +/- 1.65 TT =  3:04:51.7 (JD 2461324.628377)
Epoch 2026 Aug 14.0 TT = JDT 2461266.5   Earth MOID: 0.1085   Ma: 0.0578
M 333.575305431 +/- 1.0             (J2000 ecliptic)             AutoNEOCP
n   0.454591988 +/- 0.00605         Peri.   50.406819 +/- 2.2
a   1.675154483 +/- 0.0149          Node   333.932296 +/- 0.07
e   0.37804979 +/- 0.00432          Incl.   12.682415 +/- 0.17
P   2.168/791.904d         H 22.35  G  0.15   U  9.3
q 1.041862672 +/- 0.0108    Q 2.308446294 +/- 0.0228
From 15 observations 2026 Aug. 13-14 (14.5 hr); mean residual 0".28
Residuals in arcseconds: 
260813 F52  .10+  .16-    260813 F51  .00   .16+    260814 106  .30-  .19-    
260813 F52  .09-  .13+    260813 F51  .15+  .15-    260814 033  .21+  .17+    
260813 F51  .03+  .06-    260814 106  .60-  .64-    260814 033  .07+  .23+    
260813 F51  .05+  .09-    260814 106  .18+  .59-    260814 033  .07+  .01-    
260813 F51  .25-  .21+    260814 106  .52+  .40+    260814 033  .17-  .45+    

Ephemerides (geocentric):
Date (UTC) HH   RA             Dec           delta  r     elong  mag " sig PA
---- --------  ------------   ------------  ------ ------ -----  --- --------
2026 08 14 14  00 04 01.963   -08 26 30.36  .21374 1.1909 143.1 20.7 .202  46
2026 08 14 15  00 04 06.072   -08 23 46.98  .21351 1.1907 143.1 20.7 .252  42
2026 08 14 16  00 04 10.182   -08 21 03.26  .21327 1.1905 143.1 20.7 .306  39
2026 08 14 17  00 04 14.293   -08 18 19.20  .21303 1.1903 143.1 20.7 .364  36
2026 08 14 18  00 04 18.405   -08 15 34.79  .21279 1.1901 143.2 20.7 .425  35
2026 08 14 19  00 04 22.518   -08 12 50.03  .21255 1.1899 143.2 20.7 .491  33
2026 08 14 20  00 04 26.632   -08 10 04.92  .21231 1.1897 143.2 20.7 .559  32
2026 08 14 21  00 04 30.747   -08 07 19.47  .21207 1.1895 143.2 20.7 .632  31
2026 08 14 22  00 04 34.862   -08 04 33.66  .21184 1.1893 143.2 20.7 .708  31
2026 08 14 23  00 04 38.979   -08 01 47.51  .21160 1.1891 143.2 20.7 .787  30
2026 08 15 00  00 04 43.096   -07 59 01.00  .21136 1.1890 143.2 20.7 .870  29
2026 08 15 01  00 04 47.215   -07 56 14.15  .21112 1.1888 143.2 20.7 .956  29
2026 08 15 02  00 04 51.334   -07 53 26.94  .21089 1.1886 143.3 20.7 1.05  29
2026 08 15 03  00 04 55.455   -07 50 39.38  .21065 1.1884 143.3 20.7 1.14  28
2026 08 15 04  00 04 59.576   -07 47 51.46  .21042 1.1882 143.3 20.7 1.24  28
2026 08 15 05  00 05 03.698   -07 45 03.19  .21018 1.1880 143.3 20.7 1.34  28
2026 08 15 06  00 05 07.822   -07 42 14.57  .20994 1.1878 143.3 20.7 1.44  27
2026 08 15 07  00 05 11.946   -07 39 25.59  .20971 1.1876 143.3 20.6 1.55  27
2026 08 15 08  00 05 16.071   -07 36 36.25  .20947 1.1875 143.3 20.6 1.66  27
2026 08 15 09  00 05 20.198   -07 33 46.56  .20924 1.1873 143.3 20.6 1.77  27
2026 08 15 10  00 05 24.325   -07 30 56.50  .20900 1.1871 143.4 20.6 1.89  27
2026 08 15 11  00 05 28.453   -07 28 06.09  .20877 1.1869 143.4 20.6 2.01  26
2026 08 15 12  00 05 32.583   -07 25 15.32  .20853 1.1867 143.4 20.6 2.14  26
2026 08 15 13  00 05 36.714   -07 22 24.19  .20830 1.1865 143.4 20.6 2.27  26
2026 08 15 14  00 05 40.845   -07 19 32.70  .20807 1.1863 143.4 20.6 2.40  26
2026 08 15 15  00 05 44.978   -07 16 40.85  .20783 1.1861 143.4 20.6 2.54  26
2026 08 15 16  00 05 49.112   -07 13 48.63  .20760 1.1859 143.4 20.6 2.68  26
2026 08 15 17  00 05 53.247   -07 10 56.05  .20737 1.1858 143.4 20.6 2.83  26
2026 08 15 18  00 05 57.383   -07 08 03.11  .20714 1.1856 143.4 20.6 2.97  25
2026 08 15 19  00 06 01.520   -07 05 09.80  .20690 1.1854 143.5 20.6 3.13  25
2026 08 15 20  00 06 05.658   -07 02 16.13  .20667 1.1852 143.5 20.6 3.28  25
2026 08 15 21  00 06 09.797   -06 59 22.09  .20644 1.1850 143.5 20.6 3.44  25
2026 08 15 22  00 06 13.938   -06 56 27.68  .20621 1.1848 143.5 20.6 3.61  25
2026 08 15 23  00 06 18.079   -06 53 32.91  .20598 1.1846 143.5 20.6 3.77  25
2026 08 16 00  00 06 22.222   -06 50 37.77  .20574 1.1844 143.5 20.6 3.95  25
2026 08 16 01  00 06 26.366   -06 47 42.26  .20551 1.1843 143.5 20.6 4.12  25
2026 08 16 02  00 06 30.512   -06 44 46.38  .20528 1.1841 143.5 20.6 4.30  25
2026 08 16 03  00 06 34.658   -06 41 50.13  .20505 1.1839 143.5 20.6 4.49  25
2026 08 16 04  00 06 38.806   -06 38 53.50  .20482 1.1837 143.5 20.6 4.67  25
2026 08 16 05  00 06 42.954   -06 35 56.51  .20459 1.1835 143.6 20.6 4.87  25
2026 08 16 06  00 06 47.104   -06 32 59.14  .20436 1.1833 143.6 20.6 5.06  25
2026 08 16 07  00 06 51.256   -06 30 01.40  .20413 1.1831 143.6 20.6 5.26  25
2026 08 16 08  00 06 55.408   -06 27 03.29  .20390 1.1830 143.6 20.6 5.47  24
2026 08 16 09  00 06 59.562   -06 24 04.80  .20368 1.1828 143.6 20.6 5.68  24
2026 08 16 10  00 07 03.717   -06 21 05.93  .20345 1.1826 143.6 20.6 5.89  24
2026 08 16 11  00 07 07.873   -06 18 06.69  .20322 1.1824 143.6 20.6 6.10  24
2026 08 16 12  00 07 12.031   -06 15 07.07  .20299 1.1822 143.6 20.6 6.33  24
2026 08 16 13  00 07 16.190   -06 12 07.07  .20276 1.1820 143.6 20.6 6.55  24